Terug naar catalogus

STARLINK-33959

ActiefCommunicatieVLEO
NORAD 63817·PAYLOAD·🇺🇸 United States

Gelanceerd May 4, 2025 vanaf Cape Canaveral Space Force Station

Loading…

Volgende Passages (komende 24 uur)

TLE

VersSource: CelesTrak SupGP

Epoch: Sep 14, 2026, 22:26 UTC

1 63817C 25092P   26257.93520833 -.00028997  00000+0 -10502-2 0  2571
2 63817  42.9998 183.3638 0001353 268.7320  39.6941 15.27594774    14

Volg STARLINK-33959 in realtime met AllMySat

Download on the App Store